CAPE
0 0 0 0 0 0 0 0 0 0 0 0 0 0 0 0 0 0 0 0 0 0 0 0 0 0 2 133 200 230 195 76 22 17 26 0 0 0 0 162 237 144 65 65 347
0 0 0 0 0 0 0 0 0 0 0 0 0 0 0 0 0 0 0 0 0 0 0 0 0 0 78 151 270 169 119 11 1 0 0 0 0 0 137 199 251 88 430 441 381
0 0 0 0 0 0 0 0 0 0 0 0 0 0 0 0 0 0 0 0 0 0 0 0 0 0 8 21 110 68 10 20 0 1 7 20 0 4 82 125 125 17 59 458 468
0 0 0 0 0 0 0 0 0 0 0 0 0 0 0 0 0 0 0 0 0 0 0 0 0 0 0 0 2 57 20 154 148 51 101 81 82 203 324 483 318 157 397 604 548
0 0 0 0 0 0 0 0 0 0 0 0 0 0 0 0 0 0 0 0 0 0 0 0 0 0 0 0 0 0 39 255 182 60 145 157 230 329 534 571 361 304 495 721 790
0 0 0 0 0 0 0 0 0 0 0 0 0 0 0 0 0 0 0 0 0 0 0 0 0 0 0 0 0 0 117 234 344 352 320 210 294 337 670 789 353 331 381 461 564
0 0 0 0 0 0 0 0 0 0 0 0 0 0 0 0 0 0 0 0 0 0 0 0 0 0 0 0 0 87 184 186 315 307 362 262 261 478 688 732 426 351 333 305 418
0 0 0 0 0 0 0 0 0 0 0 0 0 0 0 0 0 0 0 0 0 0 0 0 0 0 0 0 2 125 87 76 352 343 317 233 484 695 532 853 772 465 357 406 667
0 0 0 0 0 0 0 0 0 0 0 0 0 0 0 0 0 0 0 0 0 0 0 0 0 0 0 0 4 26 15 8 125 467 458 331 368 584 373 337 526 697 684 582 516
0 0 0 0 0 0 0 0 0 0 0 0 0 0 0 0 0 0 0 0 0 0 0 0 0 0 0 0 18 1 10 14 15 438 316 251 267 370 454 200 348 437 604 605 577
0 0 0 0 0 0 0 0 0 0 0 0 0 0 0 0 0 0 0 0 0 0 0 0 0 0 0 0 0 0 0 0 178 505 380 372 282 233 238 243 415 665 489 662 829
0 0 0 0 0 0 0 0 0 0 0 0 0 0 0 0 0 0 0 0 0 0 0 0 0 0 0 0 0 0 4 49 181 472 299 378 212 229 196 476 546 381 604 810 632
0 0 0 0 0 0 0 0 0 0 0 0 0 0 0 0 0 0 0 0 0 0 0 0 0 0 0 0 0 31 6 38 94 562 400 168 232 206 284 376 365 341 788 574 522
0 0 0 0 0 0 0 0 0 0 0 0 0 0 0 0 0 0 0 0 0 0 0 0 0 0 0 0 0 3 14 61 205 156 142 280 81 179 182 341 337 372 406 364 490
0 0 0 0 0 0 0 0 0 0 0 0 0 0 0 0 0 0 0 0 0 0 0 0 0 0 0 0 0 2 25 202 247 217 306 409 90 253 343 366 391 465 499 517 617
0 0 0 0 0 0 0 0 0 0 0 0 0 0 0 0 0 0 0 0 0 0 0 0 0 0 0 4 0 43 175 246 284 176 120 400 161 77 150 223 184 466 449 426 455
0 0 0 0 0 0 0 0 0 0 0 0 0 0 0 0 0 0 0 0 0 0 0 0 0 0 0 46 127 170 338 128 182 101 53 399 232 362 293 344 203 281 191 403 441
0 0 0 0 0 0 0 0 0 0 0 0 0 0 0 0 0 0 0 0 0 0 0 0 0 0 0 0 65 206 302 185 88 53 36 357 228 487 409 623 627 461 345 553 598
0 0 0 0 0 0 0 0 0 0 0 0 0 0 0 0 0 0 0 0 0 0 0 0 0 0 0 12 41 217 109 228 204 194 70 179 262 445 428 543 548 432 623 828 723
0 0 0 0 0 0 0 0 0 0 0 0 0 0 0 0 0 0 0 0 0 0 0 0 0 0 0 23 48 43 145 196 230 152 176 113 51 307 283 384 423 520 768 708 502
0 0 0 0 0 0 0 0 0 0 0 0 0 0 0 0 0 0 0 0 0 0 0 0 0 0 0 0 10 179 213 271 239 170 166 129 135 266 473 684 724 717 750 623 410
0 0 0 0 0 0 0 0 0 0 0 0 0 0 0 0 0 0 0 0 0 0 0 0 0 0 0 82 112 197 325 393 295 385 292 160 52 743 793 924 897 818 791 609 252
0 0 0 0 0 0 0 0 0 0 0 0 0 0 12 110 26 1 0 0 0 0 0 0 0 0 15 195 212 320 464 423 504 354 53 217 260 827 740 866 847 857 672 416 68
0 0 0 0 0 0 0 0 0 0 0 0 0 0 40 140 202 115 0 0 0 0 0 0 273 8 4 18 3 131 183 93 247 45 38 80 205 903 865 966 1032 809 484 106 0
0 0 0 0 0 0 0 0 0 0 0 0 0 21 137 1 23 121 61 1 96 0 32 423 240 158 12 43 74 5 0 47 85 37 62 15 228 641 1017 1134 1000 618 201 11 0
0 0 0 0 0 0 0 0 0 0 0 0 4 57 139 135 479 323 459 63 111 286 664 371 245 226 125 256 74 48 25 111 181 174 139 190 410 881 1010 975 818 314 96 6 4
0 0 0 0 0 0 0 0 0 0 0 0 2 159 267 208 77 254 363 392 336 587 723 878 561 327 31 405 201 78 106 176 105 149 183 401 623 1053 1012 832 492 183 92 60 41
CIN
-0 -0 -0 -0 -0 -0 -0 -0 -0 -0 -0 -0 -0 -0 -0 -0 -0 -0 -0 -0 -0 -0 -0 -0 -0 -0 -254 -92 -107 -104 -7 -2 -17 -30 -16 -0 -0 -0 -0 -27 -27 -44 -79 -64 -57
-0 -0 -0 -0 -0 -0 -0 -0 -0 -0 -0 -0 -0 -0 -0 -0 -0 -0 -0 -0 -0 -0 -0 -0 -0 -0 -60 -60 -59 -47 -4 -43 -31 -0 -7 -0 -0 -0 -17 -13 -17 -72 -56 -78 -75
-0 -0 -0 -0 -0 -0 -0 -0 -0 -0 -0 -0 -0 -0 -0 -0 -0 -0 -0 -0 -0 -0 -0 -0 -0 -0 -62 -60 -32 -48 -43 -57 -0 -138 -136 -106 -0 -65 -25 -30 -33 -15 -56 -54 -55
-0 -0 -0 -0 -0 -0 -0 -0 -0 -0 -0 -0 -0 -0 -0 -0 -0 -0 -0 -0 -0 -0 -0 -0 -0 -0 -0 -0 -103 -56 -85 -50 -69 -176 -93 -59 -45 -19 -12 -39 -49 -40 -29 -30 -32
-0 -0 -0 -0 -0 -0 -0 -0 -0 -0 -0 -0 -0 -0 -0 -0 -0 -0 -0 -0 -0 -0 -0 -0 -0 -0 -0 -0 -0 -0 -49 -51 -84 -139 -72 -58 -34 -19 -36 -61 -58 -61 -46 -31 -26
-0 -0 -0 -0 -0 -0 -0 -0 -0 -0 -0 -0 -0 -0 -0 -0 -0 -0 -0 -0 -0 -0 -0 -0 -0 -0 -0 -0 -0 -0 -48 -48 -57 -69 -69 -59 -39 -31 -52 -72 -55 -56 -51 -42 -52
-0 -0 -0 -0 -0 -0 -0 -0 -0 -0 -0 -0 -0 -0 -0 -0 -0 -0 -0 -0 -0 -0 -0 -0 -0 -0 -0 -0 -0 -62 -43 -55 -56 -78 -49 -88 -49 -25 -81 -71 -60 -54 -58 -56 -56
-0 -0 -0 -0 -0 -0 -0 -0 -0 -0 -0 -0 -0 -0 -0 -0 -0 -0 -0 -0 -0 -0 -0 -0 -0 -0 -0 -0 -14 -61 -72 -10 -43 -88 -113 -116 -5 -56 -88 -43 -48 -69 -75 -77 -43
-0 -0 -0 -0 -0 -0 -0 -0 -0 -0 -0 -0 -0 -0 -0 -0 -0 -0 -0 -0 -0 -0 -0 -0 -0 -0 -0 -0 -34 -49 -5 -35 -32 -68 -74 -71 -16 -79 -107 -87 -57 -54 -63 -63 -60
-0 -0 -0 -0 -0 -0 -0 -0 -0 -0 -0 -0 -0 -0 -0 -0 -0 -0 -0 -0 -0 -0 -0 -0 -0 -0 -0 -0 -29 -1 -9 -8 -38 -26 -49 -32 -33 -88 -101 -105 -78 -78 -72 -47 -53
-0 -0 -0 -0 -0 -0 -0 -0 -0 -0 -0 -0 -0 -0 -0 -0 -0 -0 -0 -0 -0 -0 -0 -0 -0 -0 -0 -0 -0 -0 -0 -1 -9 -69 -54 -40 -42 -75 -87 -85 -81 -68 -80 -40 -31
-0 -0 -0 -0 -0 -0 -0 -0 -0 -0 -0 -0 -0 -0 -0 -0 -0 -0 -0 -0 -0 -0 -0 -0 -0 -0 -0 -0 -0 -0 -6 -6 -12 -71 -65 -35 -29 -55 -68 -61 -49 -71 -51 -26 -24
-0 -0 -0 -0 -0 -0 -0 -0 -0 -0 -0 -0 -0 -0 -0 -0 -0 -0 -0 -0 -0 -0 -0 -0 -1 -0 -0 -0 -0 -2 -7 -5 -5 -44 -70 -45 -7 -42 -65 -65 -60 -69 -49 -47 -47
-0 -0 -0 -0 -0 -0 -0 -0 -0 -0 -0 -0 -0 -0 -0 -0 -0 -0 -0 -0 -0 -0 -0 -0 -0 -0 -0 -0 -0 -7 -45 -26 -18 -14 -4 -44 -5 -33 -42 -44 -56 -23 -35 -47 -60
-0 -0 -0 -0 -0 -0 -0 -0 -0 -0 -0 -0 -0 -0 -0 -0 -0 -0 -0 -0 -0 -0 -0 -0 -0 -0 -0 -0 -0 -13 -55 -24 -20 -10 -21 -5 -6 -25 -18 -2 -35 -35 -38 -52 -68
-0 -0 -0 -0 -0 -0 -0 -0 -0 -0 -0 -0 -0 -0 -0 -0 -0 -0 -0 -0 -0 -0 -0 -0 -0 -0 -0 -37 -0 -99 -45 -32 -27 -10 -6 -13 -14 -47 -9 -25 -38 -46 -49 -68 -68
-0 -0 -0 -0 -0 -0 -0 -0 -0 -0 -0 -0 -0 -0 -0 -0 -0 -0 -0 -0 -0 -0 -0 -0 -0 -0 -0 -58 -89 -65 -14 -21 -6 -5 -4 -36 -15 -6 -27 -39 -53 -48 -54 -53 -56
-0 -0 -0 -0 -0 -0 -0 -0 -0 -0 -0 -0 -0 -0 -0 -0 -0 -0 -0 -0 -0 -0 -0 -0 -0 -0 -0 -0 -42 -8 -4 -5 -4 -30 -16 -25 -2 -5 -27 -54 -54 -43 -44 -37 -44
-0 -0 -0 -0 -0 -0 -0 -0 -0 -0 -0 -0 -0 -0 -0 -0 -0 -0 -0 -0 -0 -0 -0 -0 -0 -0 -0 -85 -60 -12 -18 -24 -11 -14 -9 -7 -6 -13 -29 -36 -30 -39 -32 -44 -61
-0 -0 -0 -0 -0 -0 -0 -0 -0 -0 -0 -0 -0 -0 -0 -0 -0 -0 -0 -0 -0 -0 -0 -0 -0 -0 -5 -78 -84 -50 -42 -14 -12 -2 -5 -28 -8 -4 -13 -19 -32 -41 -51 -70 -90
-0 -0 -0 -0 -0 -0 -0 -0 -0 -0 -0 -0 -0 -0 -0 -0 -0 -0 -0 -0 -0 -0 -0 -0 -0 -0 -0 -1 -36 -15 -12 -17 -15 -8 -5 -7 -5 -6 -15 -33 -44 -45 -70 -83 -106
-0 -0 -0 -0 -0 -0 -0 -0 -0 -0 -0 -0 -0 -0 -0 -0 -0 -0 -0 -0 -0 -0 -0 -0 -0 -0 -0 -35 -46 -18 -6 -6 -4 -0 -4 -8 -3 -74 -59 -73 -65 -64 -62 -92 -120
-0 -0 -0 -0 -0 -0 -0 -0 -0 -0 -0 -0 -0 -0 -140 -66 -103 -8 -0 -0 -0 -0 -0 -0 -0 -0 -5 -21 -46 -17 -9 -23 -23 -23 -4 -3 -7 -66 -102 -81 -70 -52 -66 -86 -152
-0 -0 -0 -0 -0 -0 -0 -0 -0 -0 -0 -0 -0 -0 -106 -37 -53 -48 -4 -0 -0 -0 -0 -0 -21 -5 -6 -4 -9 -14 -12 -17 -17 -6 -5 -4 -5 -40 -75 -65 -66 -50 -72 -120 -12
-0 -0 -0 -0 -0 -0 -0 -0 -0 -0 -0 -0 -0 -113 -69 -24 -64 -19 -41 -129 -111 -0 -108 -86 -13 -11 -8 -31 -14 -31 -0 -11 -11 -9 -13 -3 -2 -3 -29 -39 -39 -72 -103 -169 -0
-0 -0 -0 -0 -0 -0 -0 -0 -0 -0 -0 -0 -191 -148 -102 -61 -16 -7 -32 -32 -12 -89 -60 -84 -6 -16 -7 -18 -17 -16 -9 -8 -8 -16 -23 -15 -6 -16 -31 -37 -58 -74 -142 -164 -162
-0 -0 -0 -0 -0 -0 -0 -0 -0 -0 -0 -0 -103 -120 -25 -145 -264 -183 -153 -140 -114 -34 -28 -26 -9 -13 -28 -13 -13 -14 -2 -3 -4 -16 -18 -4 -4 -29 -41 -41 -51 -88 -134 -147 -180
Wind_Speed
23 23 23 23 23 23 20 19 21 23 22 20 19 17 16 15 16 17 16 14 17 23 21 20 17 17 17 17 15 13 14 13 15 14 19 16 15 16 18 17 18 19 19 19 19
26 25 27 26 25 25 24 21 20 22 23 22 21 19 17 16 18 18 15 17 21 22 19 16 15 17 16 16 16 13 10 11 14 11 8 14 12 16 17 17 17 19 19 20 20
29 29 29 30 28 26 26 23 21 22 23 24 22 20 18 17 20 10 15 20 23 21 14 13 14 14 14 15 16 16 7 13 11 15 14 15 14 15 17 16 17 17 17 18 18
31 31 30 31 30 29 26 24 23 22 24 24 23 21 20 20 19 13 14 22 23 18 16 14 13 12 12 11 13 12 8 10 8 17 16 17 17 18 18 17 16 16 16 17 15
32 31 32 30 31 30 27 25 23 22 23 24 23 21 21 24 19 14 13 22 21 18 16 14 12 9 9 11 12 13 17 16 22 20 17 17 18 17 18 16 16 16 16 15 14
33 33 33 31 31 30 27 25 23 21 22 24 22 20 23 26 16 14 16 19 20 19 16 14 11 9 10 11 13 14 16 19 20 22 19 15 16 13 17 16 17 16 14 14 13
34 34 33 32 31 30 26 25 22 20 21 22 20 21 26 20 17 19 22 20 20 19 17 15 13 10 9 13 14 15 13 15 19 19 18 16 13 16 15 15 15 14 14 12 12
34 34 33 31 31 28 25 22 18 16 13 11 18 22 26 18 18 22 23 22 21 20 19 17 15 11 11 13 15 14 14 14 21 21 18 14 19 16 16 15 15 15 13 13 13
33 33 33 31 31 26 24 19 15 12 9 10 19 22 26 16 24 19 23 21 19 19 18 18 14 11 13 11 14 16 21 18 18 19 18 15 21 17 17 18 15 14 14 15 16
33 33 32 30 29 24 23 19 18 18 15 17 18 23 23 12 16 18 17 21 22 19 14 18 13 10 14 10 5 21 20 21 17 21 15 18 21 18 14 14 15 16 14 14 16
32 32 32 30 28 23 20 17 17 13 17 19 14 23 15 19 19 14 13 13 7 20 19 11 17 19 21 20 15 15 14 17 18 18 15 22 19 18 13 13 13 12 13 13 16
32 31 31 29 26 20 18 14 13 18 19 18 23 26 24 19 24 19 9 23 20 22 15 14 9 16 17 14 13 13 11 10 15 15 17 24 22 21 17 17 16 14 12 15 16
31 31 30 29 23 19 17 14 17 18 19 16 15 19 15 10 18 8 7 10 18 16 14 13 8 12 12 10 9 9 14 10 14 17 17 24 14 20 18 17 16 17 14 15 18
31 30 29 29 19 20 16 17 19 17 14 8 13 11 8 14 23 14 9 23 6 18 7 4 12 7 8 9 11 6 18 12 11 11 25 25 24 19 14 16 15 18 16 17 17
31 30 28 24 22 19 18 19 17 15 12 10 9 15 10 4 13 2 10 4 13 5 6 11 10 7 8 15 13 15 14 11 11 10 12 17 13 20 17 17 18 17 18 18 18
31 30 29 21 21 20 20 19 15 13 8 8 9 7 3 3 5 10 2 7 16 9 5 1 16 10 15 17 12 13 13 10 11 12 8 19 18 15 20 20 20 20 21 21 21
32 31 27 22 20 19 19 15 15 16 11 7 3 3 3 1 3 5 4 3 2 3 2 5 7 11 11 13 13 13 10 14 15 16 13 17 15 18 18 18 19 19 21 22 23
33 30 22 22 21 20 18 15 16 13 13 11 9 2 1 1 7 3 5 5 3 6 12 7 8 9 12 14 18 12 11 13 23 20 21 15 16 16 17 18 16 17 20 23 26
32 23 22 19 19 18 18 14 13 12 14 11 5 2 5 8 17 1 5 4 3 5 6 10 8 12 15 13 14 14 10 15 9 11 4 17 15 14 14 16 17 19 21 24 26
26 24 21 19 15 20 18 16 13 14 14 12 7 12 6 5 3 7 0 5 9 5 2 13 6 13 13 12 15 12 14 10 8 15 18 17 11 13 12 13 16 20 22 23 25
23 23 16 18 18 20 18 15 15 15 15 14 12 8 11 8 4 6 13 9 9 7 2 7 10 9 10 9 18 13 10 11 12 12 14 14 18 18 13 14 16 18 20 22 25
22 22 17 17 20 18 19 16 17 16 15 14 15 15 13 11 9 9 10 12 10 8 7 3 9 8 12 15 14 14 15 12 11 15 13 17 11 16 11 14 14 17 19 22 25
23 23 19 18 20 19 18 18 18 17 15 15 13 14 15 14 12 13 12 11 9 6 8 7 8 10 9 10 10 10 11 13 15 15 11 17 17 15 11 11 13 16 18 20 24
22 22 19 19 19 20 20 19 19 18 18 17 15 14 14 14 14 14 12 13 10 5 12 7 11 10 21 23 19 11 8 9 11 12 22 7 14 12 8 9 13 15 18 22 24
21 22 20 19 19 20 20 19 20 18 17 17 14 15 17 16 14 13 12 10 10 6 8 8 12 11 16 16 11 11 12 10 12 14 9 5 18 10 6 8 11 15 18 22 23
22 22 21 21 19 21 19 20 21 20 19 16 17 20 18 17 18 13 15 12 12 8 8 9 14 16 15 13 12 8 11 17 20 16 8 5 2 9 7 9 11 15 17 21 24
21 21 22 21 21 20 21 19 19 21 18 19 20 20 14 16 19 20 18 19 17 14 9 11 14 15 17 14 16 14 5 9 18 18 8 3 20 8 6 7 11 14 17 21 22
Wind_Direction
320 319 316 312 308 302 292 281 280 283 273 260 252 255 247 242 225 197 192 219 176 122 121 119 135 135 132 127 126 143 151 146 103 105 47 73 83 77 23 45 40 35 13 41 83
319 317 319 313 309 303 296 284 270 273 272 265 254 253 246 243 200 197 221 200 123 114 149 151 150 144 139 118 107 144 157 277 264 117 153 72 98 72 66 51 51 49 38 62 88
322 317 316 317 311 305 297 285 272 263 265 264 257 251 246 232 196 252 226 179 127 140 191 180 174 164 142 129 115 103 247 296 285 73 74 73 89 74 37 47 50 56 59 74 85
321 319 315 316 313 307 298 288 276 260 257 256 254 248 243 214 206 254 235 138 142 173 167 168 160 162 164 143 126 143 166 268 260 71 91 77 80 70 61 47 54 70 77 84 77
319 317 318 312 313 309 299 290 277 257 243 247 248 246 236 203 219 255 248 144 147 177 168 178 169 195 181 146 124 124 87 81 58 72 78 76 67 70 76 88 74 74 79 83 74
320 319 317 313 313 308 299 291 276 257 234 238 244 245 226 201 248 257 234 128 183 191 226 201 201 218 169 140 135 111 86 60 58 49 58 76 68 95 64 75 88 88 85 89 83
319 319 317 314 311 308 298 290 275 260 233 238 241 238 215 231 243 233 208 207 199 193 200 243 220 182 155 133 129 110 114 86 59 51 57 63 88 67 79 86 84 95 98 86 90
319 318 316 312 310 304 295 286 276 272 293 276 242 231 202 246 249 231 220 219 213 218 233 252 229 176 125 131 124 120 101 89 52 52 63 92 47 68 66 85 92 98 76 89 77
316 316 315 311 310 300 292 274 271 297 329 278 239 231 191 256 222 247 228 230 247 247 251 259 195 159 99 125 98 78 33 62 62 60 59 70 32 49 61 48 67 101 79 49 52
313 313 313 310 308 298 290 257 255 252 262 251 250 224 207 137 261 255 266 249 238 263 199 210 159 166 69 175 25 25 27 22 51 41 61 50 35 39 63 72 69 71 65 57 36
309 310 310 308 305 296 296 268 267 282 266 253 261 240 260 256 256 134 289 301 113 178 191 182 210 306 316 10 47 47 47 29 29 39 51 24 38 39 61 65 71 69 53 52 19
307 307 307 305 299 288 283 293 297 275 262 263 244 240 242 260 232 159 313 188 168 191 157 168 147 5 20 44 51 44 43 42 28 41 31 6 18 35 58 58 60 45 56 44 38
304 304 304 303 289 292 293 296 280 273 263 271 269 256 266 278 258 270 113 230 168 167 170 176 353 20 34 45 45 36 21 28 19 22 27 4 34 37 58 54 46 39 75 51 29
300 300 301 302 287 294 280 280 279 266 279 297 269 277 262 270 240 286 302 217 109 193 2 33 357 32 24 21 25 14 9 19 34 33 340 358 352 32 53 40 51 37 47 38 39
296 296 294 296 275 278 281 276 278 268 117 308 278 268 267 169 297 10 300 72 168 34 22 354 358 16 9 1 5 0 9 20 27 41 41 24 26 20 48 47 29 23 34 32 33
292 291 291 296 272 263 274 272 273 270 340 347 291 266 237 220 310 325 12 321 306 338 2 33 338 356 351 359 19 24 27 41 40 41 36 15 25 46 31 26 25 10 25 31 28
289 285 280 281 277 274 267 278 273 284 303 340 356 271 183 228 176 345 36 126 115 56 143 27 12 15 27 28 40 36 59 31 22 14 21 23 27 6 29 19 1 359 15 21 21
287 282 287 268 266 262 264 274 278 287 287 292 280 315 336 346 150 138 353 111 13 357 350 37 46 55 25 17 9 33 41 17 345 350 351 23 22 34 25 4 13 19 18 17 9
285 280 276 281 272 264 264 280 297 289 271 279 310 22 320 294 278 276 158 143 59 117 44 21 18 15 7 23 23 19 33 13 33 32 47 6 26 46 54 28 24 14 9 8 11
282 275 270 282 280 260 267 278 290 279 270 269 313 293 336 345 328 312 269 321 173 152 45 336 23 356 9 23 15 19 8 24 54 6 359 9 32 44 61 36 23 11 9 13 10
278 269 278 276 272 264 266 279 273 271 270 271 288 317 316 336 63 337 313 325 337 328 233 319 341 9 16 45 1 28 43 23 6 9 5 11 12 23 32 15 12 21 13 14 10
271 264 276 272 265 267 263 270 270 270 273 276 274 277 291 310 333 335 327 318 330 9 46 30 359 4 355 356 4 10 13 26 17 9 8 350 348 360 14 3 17 17 15 11 11
265 264 271 266 264 263 266 267 268 269 276 276 284 287 287 298 314 312 326 328 333 32 13 28 5 353 6 16 15 26 25 15 360 1 358 348 356 356 12 16 19 14 20 17 11
265 261 264 265 269 266 264 264 266 270 272 277 282 292 297 305 311 320 331 332 343 4 327 7 345 346 318 322 346 20 29 29 13 4 340 2 352 5 21 12 7 18 11 8 9
261 259 262 263 262 264 265 266 264 269 273 280 284 287 283 300 314 323 325 346 0 24 351 352 340 343 332 336 2 2 356 11 357 354 356 330 345 5 31 18 12 9 10 6 9
259 258 259 265 266 260 265 264 263 268 270 277 281 281 287 292 296 315 315 338 346 13 3 345 332 330 332 338 345 359 350 332 331 343 338 346 31 5 27 13 15 2 9 3 4
262 263 258 259 259 260 262 266 266 270 273 276 284 284 295 300 295 296 301 298 311 326 342 338 331 331 326 335 334 337 339 347 337 341 2 40 337 24 39 24 5 4 5 1 4